Вернуться в каталог

STARLINK-3844

АктивенСвязьVLEO
NORAD 52705·PAYLOAD·🇺🇸 United States

Запущен May 18, 2022 с Cape Canaveral Space Force Station

Loading…

Ближайшие Пролёты (ближайшие 24 часа)

TLE

СвежийSource: CelesTrak SupGP

Эпоха: Sep 15, 2026, 02:48 UTC

1 52705C 22053BB  26258.11715278  .00046893  00000+0  13415-2 0  2589
2 52705  53.1579 350.7820 0001146  98.6069  71.0326 15.35378463    11

Отслеживайте STARLINK-3844 в реальном времени с AllMySat

Download on the App Store